sat.trackr.live / text

‹ back to catalog

TJS-10

NORAD 58204 · 2023-169A

PAYLOAD ACTIVE UNKNOWN

§ Identity

Operator
Country
PRC
Launch date
2023-11-03
Launch site
WSC
Launch vehicle
Mass (kg)
RCS (m²)

Purposes: comms

External: N2YO · Heavens-Above · Gunter

§ Orbital elements

Epoch: 2026-09-19T19:20:15.807264Z

Period
1,436.07 min
Inclination
2.7809°
Eccentricity
0.0004209
Mean motion
1.00273935 rev/d
Perigee alt
35,768.2 km
Apogee alt
35,803.7 km
Semi-major
42,164.1 km
B*
0.0000e+0
RAAN
79.2675°
Arg perigee
130.7409°
Mean anomaly
171.2068°
Rev number
1,048

§ Raw data

TJS-101 58204U 23169A   26262.80573851 -.00000253  00000+0  00000+0 0  99942 58204   2.7809  79.2675 0004209 130.7409 171.2068  1.00273935 10480

JSON: /api/v1/satellites/58204 · /tle

For live sub-satellite position, see the globe view (requires WebGL).

§ Visibility from observer

Set your observer location to see the next 7 days of passes ≥ 10°. The values pass through the URL so the page stays shareable.

No JS? Fill the form by hand. The geolocation button needs JavaScript.